Dewpoint
13 14 14 14 14 14 15 15 15 14 14 14 13 13 14 13 13 13 13 13 13 13 13 14 14 13 13 13 14 15 15 14 12 12 12 11 11 11 11 12 12 13
13 13 14 14 14 14 14 14 15 14 14 14 13 13 14 14 13 13 13 13 13 13 13 14 14 13 14 14 14 15 15 14 12 11 11 11 11 12 11 11 12 12
12 13 13 14 14 14 13 13 14 14 14 14 14 14 14 13 13 13 13 13 13 13 13 13 14 14 14 15 15 14 14 13 13 12 11 11 11 11 11 11 11 12
11 12 13 14 14 14 14 13 13 14 14 13 13 13 13 13 14 13 13 13 13 13 13 13 14 14 14 15 14 14 14 13 13 13 12 11 11 11 10 10 11 11
9 10 12 13 14 14 14 14 13 14 14 13 13 13 13 13 14 14 13 12 13 13 13 13 14 14 14 14 14 14 14 14 13 13 12 12 12 11 10 10 10 10
8 8 10 11 12 13 14 13 13 13 14 13 12 13 14 13 13 13 13 13 13 12 12 12 13 13 13 14 13 13 14 13 13 13 12 12 13 12 11 10 10 10
9 8 8 9 10 11 13 13 12 13 13 14 13 13 14 14 14 14 13 13 13 13 12 11 12 12 13 13 13 13 13 13 12 12 12 12 13 12 12 11 11 10
8 9 8 8 9 10 11 12 12 12 13 14 14 13 13 14 15 15 15 14 13 13 13 12 11 11 12 12 12 12 12 13 12 12 11 11 12 13 12 12 12 12
8 9 10 9 9 9 10 10 11 11 12 14 14 14 14 14 15 16 16 15 14 14 13 13 12 11 11 11 11 12 12 12 12 12 12 12 12 12 12 12 12 12
8 9 10 10 10 10 9 10 10 10 11 12 13 14 15 14 15 16 16 16 16 15 14 13 12 11 11 11 11 11 11 12 12 12 12 12 12 12 12 12 12 11
8 8 8 9 9 10 9 9 10 9 10 11 12 13 14 14 15 15 16 16 16 16 16 15 13 12 11 10 10 11 11 11 12 12 12 12 12 12 12 12 12 11
8 7 7 8 8 9 9 10 10 10 9 10 11 12 14 14 14 15 15 16 16 16 16 15 15 14 13 11 10 10 10 11 11 11 12 12 12 11 11 11 12 11
10 9 9 9 9 9 9 8 9 9 9 10 11 12 13 14 14 14 14 14 14 15 15 15 14 14 14 13 12 11 11 11 11 12 12 12 12 11 11 11 11 12
13 12 12 12 11 11 11 9 8 8 9 9 10 11 12 12 13 14 14 13 13 13 13 13 13 13 13 13 12 11 11 11 11 11 11 11 11 11 11 11 11 11
15 15 15 14 14 13 14 13 11 9 8 10 11 12 12 12 12 13 14 14 13 13 12 13 13 13 13 13 12 11 11 10 10 10 9 9 9 9 9 9 10 10
16 16 16 16 16 15 15 16 15 13 10 11 12 13 14 14 13 13 13 14 14 14 13 13 13 13 13 13 13 12 12 11 11 10 9 9 8 7 7 7 7 8
17 17 17 17 17 16 16 16 16 15 14 13 13 14 15 15 14 13 13 13 14 14 14 14 13 13 13 13 13 13 13 12 12 12 12 12 11 10 9 8 7 7
18 17 17 17 17 17 16 16 16 16 16 16 15 14 15 15 15 14 14 14 14 14 14 14 14 13 13 13 13 13 13 13 13 13 13 13 13 13 12 11 9 7
17 17 17 17 17 17 16 16 17 17 17 17 16 16 16 16 15 15 14 14 14 14 14 14 14 13 13 13 13 13 13 14 14 13 13 13 13 13 14 13 12 11
17 17 17 17 17 17 17 17 17 17 16 16 16 16 16 16 16 15 14 14 14 14 14 14 14 14 14 13 13 13 13 13 13 14 14 14 14 14 14 14 14 14
17 17 17 17 17 17 17 17 17 17 16 16 16 16 16 16 16 15 14 14 14 14 14 14 14 14 14 14 13 13 13 13 13 13 14 14 14 14 14 14 14 14
16 16 16 17 17 17 17 17 17 17 17 17 17 17 17 16 16 15 15 14 14 14 14 14 15 15 15 14 14 13 13 13 13 13 13 14 14 14 14 14 14 14
15 15 15 16 16 16 16 16 16 17 17 17 17 17 17 17 17 16 16 15 15 15 15 15 15 15 15 15 15 15 14 14 13 13 13 13 14 14 14 15 14 14
14 14 14 15 15 15 16 16 16 16 16 16 17 16 16 16 16 16 16 16 17 16 16 16 15 15 15 15 15 15 15 15 14 14 14 14 14 15 15 15 15 15
11 12 11 11 12 13 14 14 15 15 15 15 15 16 16 16 16 16 16 16 16 16 16 16 16 15 15 15 15 15 15 15 15 15 15 15 15 15 15 15 15 16
6 7 6 6 8 9 10 11 11 12 13 14 15 15 15 15 15 15 15 15 16 16 16 16 16 16 16 16 16 16 16 15 15 15 15 15 15 15 15 15 15 15
Wind_Speed
22 20 19 17 15 14 13 12 11 11 11 11 9 9 9 9 10 11 11 11 11 11 11 11 12 12 12 11 10 10 10 10 9 9 9 9 9 9 9 10 10 8
23 22 20 19 17 15 14 13 11 11 11 10 9 8 9 9 11 11 11 11 11 11 11 11 12 12 11 10 10 10 9 9 9 9 9 9 9 9 9 10 10 10
24 23 22 21 18 16 15 13 12 11 11 11 10 9 10 10 11 11 10 10 10 11 11 11 11 11 11 10 10 10 8 8 8 8 9 10 10 10 10 10 11 11
24 24 24 23 20 18 16 14 13 13 12 12 11 11 11 11 11 11 10 10 10 10 11 10 11 11 10 10 10 9 8 8 8 9 9 9 8 9 10 11 11 12
24 23 23 23 22 20 19 17 15 14 14 13 12 12 12 12 11 11 11 11 11 10 10 10 10 10 10 9 9 9 9 8 8 9 9 8 8 7 8 10 12 12
22 23 23 23 23 22 21 19 17 15 15 13 12 12 12 12 12 11 11 11 11 11 10 9 10 10 9 9 9 9 9 8 8 9 9 8 7 7 7 8 10 12
22 22 23 22 22 23 23 21 19 17 16 14 13 13 13 13 13 12 12 11 11 11 10 10 10 10 10 10 9 9 8 8 8 9 8 7 7 8 8 7 8 9
22 22 23 22 22 23 23 22 20 19 17 15 14 14 14 14 13 13 13 12 11 12 11 11 11 11 11 11 10 9 9 9 9 8 8 8 8 8 8 8 8 8
23 22 22 22 22 22 22 22 21 20 18 17 16 14 14 15 14 13 13 13 12 12 13 13 12 12 12 11 11 10 10 9 9 9 8 8 9 9 8 9 9 9
24 23 23 23 23 22 22 21 21 20 20 19 18 16 15 15 15 14 14 14 14 14 13 13 13 13 13 12 12 12 11 10 10 10 10 9 9 9 9 10 10 10
25 24 24 24 24 23 22 21 20 20 20 19 18 17 16 15 15 15 14 15 15 15 15 14 13 13 13 13 13 13 12 11 11 12 12 12 11 10 9 10 11 11
25 25 24 24 24 23 22 21 20 20 19 18 18 17 15 14 14 15 16 16 16 16 15 15 14 14 14 14 14 14 14 13 13 13 14 14 13 12 11 11 12 12
24 24 24 23 23 22 21 21 21 21 20 19 18 16 15 14 14 14 15 16 16 16 15 15 15 14 14 15 15 15 15 15 14 14 14 15 15 15 14 14 13 13
25 24 24 23 22 21 20 20 21 22 21 20 19 18 16 15 15 14 14 15 16 16 15 14 14 14 13 14 14 15 15 15 14 14 15 15 16 16 16 16 15 14
26 26 25 24 23 22 21 20 20 21 22 21 20 19 18 17 16 15 15 15 16 16 16 15 14 14 13 12 12 13 14 14 14 14 14 15 15 16 16 17 17 17
29 28 27 25 24 23 22 21 21 21 21 22 22 21 20 19 18 17 17 16 17 17 18 18 17 16 14 13 13 12 13 13 13 13 13 14 15 16 16 17 17 18
31 29 28 27 25 24 23 22 21 20 21 22 23 23 22 21 21 20 19 19 18 19 20 20 20 18 17 16 15 15 15 15 15 15 15 15 16 16 16 17 17 18
30 29 28 27 25 24 23 22 22 21 20 21 23 24 24 24 23 23 22 21 21 21 22 22 22 21 20 19 18 18 19 19 19 18 17 17 16 16 15 15 15 16
27 26 25 25 25 24 23 23 22 22 22 22 23 24 24 25 25 25 23 23 23 23 23 23 23 22 22 22 22 21 21 22 22 22 21 19 18 17 16 15 15 15
19 19 20 21 22 23 24 25 25 25 25 25 25 25 26 27 28 26 24 22 22 22 22 23 24 24 24 24 24 23 22 23 24 24 23 22 21 20 19 18 17 17
15 16 17 18 18 19 20 22 23 24 24 24 24 24 25 26 27 27 25 23 22 22 22 23 23 24 25 26 26 24 23 23 24 24 24 24 24 23 22 21 20 20
11 13 14 15 16 16 16 17 18 18 19 19 19 18 18 19 22 25 26 26 25 23 22 22 23 23 23 24 25 25 24 24 24 24 25 25 25 25 24 23 22 22
5 6 8 10 11 13 12 12 13 14 15 16 16 15 13 13 16 19 21 23 23 22 22 22 22 22 22 22 22 22 23 23 24 25 25 26 26 25 25 25 24 24
4 4 5 7 8 9 8 8 9 10 12 13 15 16 15 14 14 16 18 18 18 19 22 23 23 23 23 23 22 22 22 23 24 25 27 27 28 27 27 27 27 27
5 4 4 5 6 7 5 5 6 7 8 10 13 15 16 14 13 16 19 18 15 17 21 24 24 24 23 22 22 22 23 24 25 27 28 29 29 29 29 29 29 29
5 5 4 5 4 4 3 2 2 3 4 7 10 12 13 14 13 15 18 18 16 16 19 20 22 23 23 23 23 23 23 24 25 27 29 30 31 32 33 33 33 33
Wind_Direction
220 220 220 218 216 215 215 214 215 214 210 209 207 207 208 209 210 210 210 210 210 210 211 212 215 219 224 229 234 239 243 241 236 234 234 235 238 241 242 241 238 234
221 223 223 222 218 215 215 214 217 216 210 210 207 204 207 208 211 214 212 213 211 209 212 216 218 221 223 229 237 242 247 248 245 241 238 238 239 241 243 239 235 236
222 224 225 226 224 221 220 217 218 217 212 211 208 206 208 207 211 213 213 217 216 212 214 218 221 221 223 232 238 241 244 245 245 244 242 240 238 239 241 239 237 237
223 224 225 228 229 228 228 225 224 222 217 212 208 208 209 208 211 210 209 215 218 218 217 217 218 219 223 231 237 241 242 238 238 242 242 240 240 240 241 241 239 238
224 224 225 228 229 230 231 230 229 230 226 219 212 211 212 213 213 210 210 214 217 220 221 217 217 219 223 228 232 240 242 235 233 238 239 239 242 241 242 243 240 237
223 224 224 227 227 227 230 231 233 235 234 230 223 218 218 219 220 218 217 218 217 218 222 224 223 222 225 226 228 236 238 233 234 240 242 241 242 241 243 245 241 237
223 223 223 225 226 226 229 232 236 238 237 236 232 226 223 223 225 225 224 223 219 217 221 228 229 228 228 226 227 233 237 237 240 246 250 249 246 243 245 248 246 243
223 222 223 225 226 227 229 232 236 239 240 240 237 230 226 226 225 227 229 228 224 223 225 227 231 235 234 232 232 235 240 243 244 249 256 258 255 251 248 248 250 251
225 222 222 224 227 229 231 233 235 239 241 242 241 237 232 230 227 227 232 233 231 230 229 229 233 237 239 241 241 240 243 247 250 254 258 260 262 262 258 255 254 256
226 224 222 223 226 229 232 233 234 237 240 242 243 242 239 235 233 233 237 240 241 237 235 235 236 237 240 244 246 245 245 248 254 259 261 262 261 263 264 262 261 262
225 224 223 223 224 226 229 231 233 235 237 239 241 242 241 239 239 240 242 246 248 247 246 245 244 243 243 243 246 249 248 248 253 258 262 264 261 259 260 262 266 268
225 225 225 224 224 225 226 228 229 231 233 234 236 237 238 240 243 244 245 249 252 255 257 256 255 255 253 249 247 246 246 246 249 253 260 264 265 263 261 260 264 268
224 225 226 226 226 226 226 226 226 227 229 229 229 230 232 236 240 244 248 252 255 257 261 264 264 262 261 260 256 251 247 244 244 249 255 261 265 267 266 264 263 264
225 226 226 225 225 225 226 227 226 226 227 228 227 228 231 234 237 242 249 255 258 259 260 263 266 265 264 264 264 261 259 255 252 251 253 256 260 263 266 266 264 262
229 229 229 228 225 223 224 228 229 229 229 229 229 230 232 235 238 241 245 250 257 260 260 259 259 262 265 268 270 271 271 269 267 263 261 260 260 262 264 265 265 263
233 232 231 230 227 225 226 229 231 231 231 232 234 235 238 242 244 244 244 247 251 256 259 258 256 257 260 264 269 272 274 275 274 273 272 271 271 270 268 267 267 267
232 233 232 230 229 228 229 228 228 230 232 235 236 237 241 246 249 250 248 248 250 252 255 257 256 256 256 259 263 266 269 272 273 275 277 279 281 281 278 275 272 271
228 230 229 229 228 228 227 226 227 230 233 236 238 239 241 245 250 253 253 252 253 254 255 256 256 257 257 258 260 262 265 268 270 273 276 277 280 283 284 282 278 276
226 228 229 230 230 229 228 228 230 233 234 235 237 239 240 243 248 252 255 256 257 259 261 260 260 260 261 262 261 261 264 267 269 270 271 272 274 275 276 277 276 275
218 222 224 227 228 228 229 229 230 232 233 234 237 238 240 243 245 248 251 253 255 258 260 261 261 261 262 263 264 264 264 267 269 270 270 270 270 269 270 271 271 273
204 204 208 214 217 221 227 228 227 228 230 231 234 237 240 242 243 245 246 247 249 251 253 256 258 259 260 262 264 265 263 263 265 266 267 267 267 267 267 268 269 272
195 196 201 207 212 215 221 223 222 222 222 223 226 228 233 238 241 243 244 246 248 250 252 251 251 251 253 256 259 261 262 262 262 261 262 263 264 265 265 267 269 271
169 189 202 207 212 216 221 226 226 222 219 219 220 221 224 232 240 243 246 247 247 246 247 245 243 243 244 246 250 253 256 258 259 259 259 260 262 263 264 265 268 271
161 193 210 207 210 216 220 227 232 233 232 230 229 228 229 234 240 243 246 250 249 245 243 243 241 242 244 246 247 249 251 253 255 256 257 258 260 262 262 264 266 269
143 156 169 182 202 213 215 223 236 243 245 243 242 242 239 239 244 245 245 249 250 246 245 247 247 247 250 253 254 255 255 256 257 259 260 262 264 265 266 268 270 272
127 141 144 142 157 180 189 214 248 253 247 245 247 249 247 248 253 251 248 251 251 248 248 251 251 251 252 254 257 259 261 263 265 266 268 269 270 271 272 273 274 276
Height
1590 1591 1592 1593 1595 1596 1597 1598 1598 1599 1600 1600 1601 1602 1602 1603 1604 1604 1605 1606 1607 1607 1608 1608 1609 1610 1611 1612 1612 1613 1614 1614 1615 1615 1616 1616 1617 1617 1618 1618 1619 1619
1589 1590 1591 1593 1594 1595 1596 1597 1598 1599 1599 1600 1600 1601 1602 1603 1604 1604 1605 1606 1606 1607 1607 1608 1608 1609 1610 1611 1612 1612 1613 1613 1614 1615 1615 1616 1616 1617 1617 1618 1618 1618
1588 1589 1590 1591 1593 1594 1595 1596 1597 1598 1599 1600 1600 1601 1602 1602 1603 1604 1605 1605 1606 1607 1607 1607 1608 1609 1609 1610 1611 1612 1612 1613 1613 1614 1615 1615 1616 1616 1616 1617 1617 1617
1586 1588 1589 1590 1592 1593 1594 1595 1596 1597 1598 1599 1600 1600 1601 1602 1602 1603 1604 1604 1605 1606 1606 1607 1607 1608 1609 1610 1610 1611 1611 1612 1613 1613 1614 1614 1615 1615 1616 1616 1616 1617
1585 1586 1587 1589 1590 1592 1593 1594 1595 1596 1597 1598 1599 1599 1600 1601 1601 1602 1603 1603 1604 1605 1606 1606 1607 1607 1608 1609 1609 1610 1611 1611 1612 1612 1613 1613 1614 1614 1614 1615 1615 1616
1583 1585 1586 1587 1589 1590 1591 1592 1593 1594 1595 1597 1597 1598 1599 1600 1600 1601 1602 1603 1603 1604 1605 1605 1606 1606 1607 1608 1609 1609 1610 1610 1611 1611 1612 1612 1613 1613 1613 1614 1614 1615
1582 1583 1584 1586 1587 1588 1589 1590 1592 1593 1594 1595 1596 1597 1598 1598 1599 1600 1601 1602 1602 1603 1604 1604 1605 1606 1606 1607 1608 1608 1609 1609 1610 1611 1611 1611 1612 1612 1613 1613 1614 1614
1580 1581 1582 1584 1585 1586 1588 1589 1590 1591 1593 1594 1595 1596 1597 1597 1598 1599 1600 1601 1601 1602 1603 1604 1604 1605 1606 1606 1607 1607 1608 1608 1609 1610 1610 1611 1611 1612 1612 1613 1613 1613
1578 1579 1581 1582 1583 1585 1586 1587 1589 1590 1592 1593 1594 1595 1596 1597 1597 1598 1599 1600 1601 1602 1602 1603 1604 1605 1605 1606 1606 1607 1607 1608 1608 1609 1610 1610 1611 1611 1612 1612 1613 1613
1576 1577 1579 1580 1581 1583 1584 1585 1587 1588 1590 1591 1592 1593 1594 1595 1596 1597 1598 1599 1600 1601 1602 1602 1603 1604 1605 1605 1606 1606 1607 1607 1608 1608 1609 1610 1610 1611 1612 1612 1612 1613
1573 1575 1576 1577 1579 1580 1582 1583 1585 1586 1588 1589 1590 1592 1593 1594 1595 1596 1597 1598 1599 1600 1601 1601 1602 1603 1604 1604 1605 1606 1606 1607 1607 1608 1608 1609 1610 1610 1611 1611 1612 1612
1571 1573 1574 1575 1577 1578 1580 1582 1583 1584 1585 1587 1588 1589 1591 1592 1593 1594 1595 1596 1597 1598 1599 1600 1601 1602 1602 1603 1604 1605 1605 1606 1606 1607 1607 1608 1609 1609 1610 1611 1611 1611
1569 1570 1572 1573 1575 1576 1578 1579 1581 1582 1583 1584 1586 1587 1588 1590 1591 1592 1593 1593 1595 1596 1597 1598 1599 1600 1601 1601 1602 1603 1604 1605 1605 1606 1606 1607 1607 1608 1609 1609 1609 1610
1567 1568 1570 1571 1573 1574 1576 1577 1578 1580 1581 1582 1583 1584 1586 1587 1588 1590 1591 1592 1593 1594 1595 1596 1597 1598 1599 1600 1601 1602 1603 1604 1604 1605 1605 1605 1606 1606 1607 1607 1608 1608
1565 1567 1568 1570 1571 1572 1574 1575 1577 1578 1579 1580 1581 1581 1583 1584 1586 1587 1589 1590 1591 1592 1593 1594 1595 1596 1597 1599 1600 1600 1601 1602 1603 1603 1604 1604 1605 1605 1605 1606 1606 1606
1565 1566 1567 1568 1569 1570 1572 1573 1575 1576 1577 1578 1579 1579 1581 1582 1583 1585 1586 1588 1589 1590 1591 1592 1593 1595 1596 1597 1598 1599 1600 1600 1601 1602 1602 1603 1603 1603 1604 1604 1604 1604
1564 1565 1566 1567 1568 1569 1570 1571 1573 1574 1575 1576 1577 1578 1579 1580 1582 1583 1584 1586 1587 1588 1589 1590 1591 1593 1594 1596 1597 1598 1598 1599 1600 1600 1601 1601 1601 1601 1602 1602 1602 1603
1563 1564 1565 1566 1567 1568 1569 1570 1571 1572 1573 1574 1575 1576 1577 1578 1580 1581 1582 1584 1585 1586 1587 1588 1590 1591 1593 1594 1595 1596 1597 1597 1598 1599 1599 1599 1600 1600 1600 1600 1600 1600
1562 1563 1564 1565 1565 1566 1567 1568 1568 1569 1571 1572 1573 1575 1576 1577 1578 1579 1581 1582 1583 1584 1585 1586 1588 1589 1591 1592 1593 1594 1595 1595 1596 1597 1597 1597 1598 1598 1598 1598 1598 1598
1560 1562 1563 1564 1564 1564 1565 1565 1566 1567 1568 1570 1571 1573 1574 1575 1576 1578 1579 1579 1580 1581 1583 1584 1586 1587 1589 1590 1591 1592 1593 1593 1594 1594 1595 1595 1595 1596 1596 1596 1596 1596
1559 1560 1561 1561 1562 1562 1563 1563 1564 1564 1566 1567 1569 1570 1572 1573 1574 1575 1576 1577 1578 1579 1580 1582 1583 1584 1586 1587 1588 1589 1590 1591 1591 1592 1592 1592 1593 1593 1594 1594 1594 1594
1557 1558 1558 1559 1560 1562 1562 1563 1562 1562 1563 1564 1566 1568 1570 1571 1572 1573 1575 1576 1577 1578 1578 1579 1580 1581 1582 1583 1585 1586 1587 1588 1588 1589 1589 1589 1590 1590 1591 1591 1592 1592
1556 1556 1557 1558 1560 1561 1562 1562 1561 1561 1561 1561 1563 1566 1569 1570 1571 1573 1575 1576 1577 1577 1577 1577 1578 1579 1579 1580 1582 1583 1584 1585 1585 1586 1586 1586 1586 1587 1588 1588 1589 1589
1555 1555 1555 1557 1559 1560 1560 1560 1560 1560 1560 1561 1563 1565 1567 1569 1570 1572 1574 1574 1574 1575 1575 1575 1576 1577 1578 1579 1580 1580 1581 1582 1582 1582 1583 1583 1583 1584 1585 1585 1585 1586
1556 1556 1557 1559 1560 1560 1559 1558 1558 1559 1560 1561 1562 1564 1565 1567 1568 1570 1572 1572 1572 1573 1572 1573 1574 1575 1576 1577 1577 1578 1579 1579 1579 1579 1580 1580 1580 1581 1581 1581 1582 1582
1556 1557 1558 1559 1560 1559 1559 1558 1557 1558 1559 1560 1560 1562 1563 1564 1566 1568 1569 1569 1569 1570 1570 1571 1572 1572 1573 1573 1574 1575 1575 1576 1576 1576 1576 1577 1577 1577 1577 1577 1578 1578